RH
10 13 12 10 14 16 9 8 9 11 9 6 5 6 7 11 34 39 37 38 28 22 19 18 19 22 22 23 25 25 24 24 22 19 18 17 16 15 15 15 15 14 14 14 14 14 14 14 15
12 12 12 30 28 29 16 8 13 14 11 9 7 8 8 14 21 34 37 35 40 32 24 19 18 21 22 22 23 24 24 23 23 21 19 18 17 16 16 16 16 16 16 15 15 14 14 14 14
14 13 12 28 26 24 15 14 17 17 16 15 12 9 18 41 36 34 19 15 33 36 26 20 20 20 22 22 22 23 24 24 24 23 22 19 18 17 17 17 17 17 17 17 17 17 16 16 15
17 18 18 29 27 10 17 15 19 16 16 14 18 12 39 50 37 31 17 15 30 36 32 21 20 20 22 22 22 22 23 24 24 24 24 23 22 19 18 18 18 18 18 18 18 17 18 18 17
22 24 28 24 18 13 19 19 20 17 16 17 26 22 36 57 48 34 24 14 18 28 34 29 20 21 22 22 22 22 22 22 23 24 24 24 24 24 23 19 18 19 20 20 20 20 19 19 19
24 28 33 29 16 11 15 16 18 17 17 18 29 24 31 29 40 33 16 13 14 15 16 28 24 20 22 22 22 22 21 21 21 22 22 22 23 24 25 24 22 19 19 20 21 22 22 21 21
24 27 31 28 19 23 19 20 16 14 15 20 25 34 35 32 26 16 14 14 14 14 15 21 27 20 21 22 22 21 21 20 19 20 20 21 22 22 24 25 26 25 23 20 20 21 22 22 22
36 40 36 31 27 22 20 16 13 14 15 18 21 28 35 36 25 16 15 14 14 15 17 25 31 19 20 21 21 20 20 19 18 18 19 20 21 22 24 26 28 30 28 25 24 22 20 21 21
37 52 44 29 29 21 23 20 13 12 18 20 22 31 32 37 33 20 16 15 14 15 19 28 33 20 20 20 20 20 19 18 17 18 19 19 20 22 24 27 30 34 38 34 28 26 25 24 23
48 52 39 27 23 28 26 22 14 15 18 22 29 29 30 42 40 28 24 17 14 18 27 30 29 21 19 19 19 19 19 19 17 17 19 20 21 22 24 27 29 34 42 47 45 39 35 32 29
42 50 39 28 26 29 26 23 16 16 19 19 27 29 32 29 37 38 20 17 15 23 24 30 32 22 18 18 18 18 18 18 19 18 20 22 22 23 25 27 29 32 41 51 57 58 55 49 44
49 40 40 33 31 31 26 25 21 19 20 23 21 25 27 26 27 30 22 18 17 19 21 28 37 38 36 25 18 17 17 18 19 19 21 25 25 25 26 28 29 31 37 51 60 65 67 65 60
54 43 41 37 34 29 26 27 22 21 21 24 25 27 35 30 32 31 22 20 19 18 21 21 28 31 34 38 36 21 18 19 19 20 22 27 27 26 28 31 31 32 37 50 62 62 59 59 61
46 52 45 41 36 28 30 29 25 20 22 22 23 26 40 44 44 43 27 21 19 19 20 22 26 28 30 41 38 32 23 22 24 22 23 27 27 28 32 34 33 36 43 51 59 56 46 32 29
45 53 49 46 39 38 33 31 28 22 21 22 23 25 30 37 55 60 42 28 21 19 21 22 25 25 34 31 40 39 42 41 35 24 24 27 26 24 32 34 36 40 44 47 42 34 27 26 30
52 52 50 35 42 40 36 33 30 26 21 23 23 23 26 29 30 43 61 53 43 28 23 26 24 25 28 31 32 34 39 46 42 28 25 27 28 26 28 34 32 35 35 33 31 35 34 33 35
58 52 48 36 38 40 36 34 31 31 28 24 22 22 24 25 30 30 38 58 57 53 48 30 26 24 18 24 27 28 34 32 28 23 22 27 30 28 27 32 34 37 35 36 39 38 38 34 36
61 54 49 46 31 39 38 33 32 31 29 27 26 21 23 25 24 27 29 46 60 55 51 42 30 23 22 20 19 19 22 23 18 18 20 20 25 27 28 30 35 36 36 35 36 36 36 35 38
46 50 46 39 36 38 36 35 33 30 29 25 28 26 25 22 24 25 27 33 44 51 44 42 36 27 23 24 23 18 17 17 18 18 20 22 24 27 29 33 37 39 41 42 41 39 38 39 39
65 53 50 43 37 38 36 31 31 31 29 26 23 24 24 24 23 22 27 29 34 37 40 36 34 32 24 23 24 27 24 22 22 22 22 28 25 27 31 40 47 48 48 50 50 47 43 43 49
70 59 45 44 40 36 33 32 32 29 28 27 24 23 24 24 23 23 23 28 30 31 34 35 33 29 27 24 25 28 29 28 27 26 25 24 28 27 37 49 52 48 44 43 42 41 42 45 54
73 62 51 46 43 36 34 35 32 30 28 25 24 25 22 23 24 23 23 24 29 29 30 32 35 28 26 31 26 25 25 25 25 27 28 27 25 27 43 58 60 55 51 47 47 49 51 47 49
75 62 56 50 44 38 34 34 30 29 28 26 24 23 24 21 22 23 23 23 24 28 29 30 31 31 29 29 28 26 26 25 28 31 33 31 28 25 43 64 68 67 55 55 56 59 64 57 55
91 76 57 52 47 48 37 33 30 27 25 24 23 26 24 23 22 24 22 23 24 25 29 29 29 31 32 32 31 29 28 27 27 29 32 32 32 27 40 55 61 67 57 60 65 68 62 63 64
99 100 87 72 69 57 36 36 32 26 25 26 25 23 23 24 22 22 24 23 25 25 26 29 31 34 33 32 29 29 27 31 30 30 31 36 32 31 31 50 46 46 44 56 69 70 67 60 62
99 99 96 88 68 75 59 49 35 20 28 25 25 27 26 24 23 21 26 25 25 26 27 27 27 28 28 30 32 29 29 22 26 26 28 32 37 38 33 49 53 43 48 55 62 76 64 62 64
90 99 88 99 86 64 48 59 48 40 31 25 29 25 23 25 25 24 21 20 20 21 24 27 28 28 30 32 33 34 32 30 26 27 26 29 35 42 37 40 56 54 59 59 65 65 69 66 63
93 85 99 99 98 94 58 46 50 39 33 31 25 27 25 24 24 23 24 23 21 21 22 25 28 28 28 31 33 34 34 33 32 31 30 28 32 38 44 43 58 65 67 62 49 66 65 64 62
84 99 99 99 98 92 73 50 34 38 34 34 28 23 20 21 23 22 22 23 23 25 27 27 27 29 31 32 33 38 39 39 40 38 33 31 34 36 41 48 55 73 70 59 48 59 62 61 58
99 98 99 99 99 91 78 51 38 38 40 35 32 25 21 19 18 20 22 23 26 29 29 27 29 31 33 33 33 35 40 47 49 50 43 32 39 42 45 61 58 70 62 57 57 55 58 61 57
Wind_Speed
9 9 10 12 10 11 23 21 13 7 8 13 14 8 4 6 6 11 15 18 17 13 17 20 18 16 15 15 15 15 15 15 15 15 15 15 15 15 14 14 14 13 13 13 12 11 11 10 9
11 12 13 11 13 17 24 16 20 19 15 14 15 14 11 7 7 1 8 18 17 14 14 20 19 17 15 14 14 14 13 12 12 13 13 12 13 13 13 14 14 14 15 14 13 13 12 11 10
12 16 19 9 19 30 19 4 21 14 11 9 13 12 5 7 8 5 13 12 17 17 17 20 20 19 16 15 13 14 12 12 11 11 11 11 10 10 12 13 14 14 14 14 14 14 13 12 11
15 18 19 21 24 28 28 13 5 7 3 8 6 15 11 12 13 8 12 11 13 19 17 21 21 21 19 17 16 14 13 12 11 10 10 10 9 9 10 11 12 12 13 14 15 14 14 13 12
18 20 21 22 29 26 22 19 15 7 6 2 12 14 14 13 9 11 15 14 14 16 19 19 24 24 22 20 17 16 14 12 11 10 8 8 8 8 8 9 10 11 11 12 13 13 13 14 13
22 23 16 26 26 21 13 16 26 11 4 6 14 19 19 14 18 17 16 17 15 15 18 21 25 27 25 22 19 17 15 13 11 10 8 7 7 6 6 7 7 8 9 10 10 9 9 11 11
28 24 25 21 25 24 19 25 20 15 12 12 16 16 17 13 17 17 16 16 14 16 19 22 27 29 27 24 21 19 16 14 12 11 10 8 7 6 5 5 5 5 6 7 7 6 6 6 7
26 24 27 29 32 31 12 8 21 14 13 13 18 25 19 14 16 18 17 15 15 21 21 20 25 29 27 25 23 20 18 16 13 11 10 10 9 7 6 5 5 4 3 3 4 5 4 3 2
26 27 34 34 32 28 14 23 20 16 16 9 21 16 17 19 19 20 19 16 17 20 21 20 24 28 28 26 25 22 20 17 15 12 11 10 10 9 8 6 5 4 3 3 3 3 3 2 1
32 37 42 32 28 27 23 19 21 15 21 14 15 18 21 13 19 21 20 17 16 18 18 18 22 27 28 27 25 22 20 18 14 11 11 11 11 11 9 8 6 6 5 4 3 3 3 2 2
38 47 39 35 29 22 21 21 19 21 21 24 12 19 21 28 19 21 20 17 15 17 18 16 18 23 26 26 26 23 21 18 15 13 12 13 13 12 10 9 9 8 6 5 4 4 3 4 3
35 42 39 35 27 27 26 16 14 22 18 14 16 24 32 29 25 25 24 21 19 18 19 18 19 20 23 26 27 24 23 20 17 14 14 14 14 12 11 11 10 9 7 7 6 5 5 5 5
39 40 35 34 33 31 22 18 22 20 20 19 21 14 34 30 24 21 24 24 24 18 19 19 20 23 26 24 25 26 24 23 19 17 17 17 16 14 13 13 12 10 9 8 7 6 6 7 8
38 38 39 37 38 30 26 26 28 26 24 22 19 15 21 24 22 19 27 28 27 21 18 20 19 19 27 27 24 25 26 24 22 19 19 19 18 16 15 14 13 12 11 9 10 9 10 10 8
43 39 38 42 42 40 30 35 38 33 30 29 29 23 22 24 20 21 20 25 29 24 19 19 19 17 22 28 25 24 24 25 24 22 20 21 20 17 15 16 14 14 12 13 12 9 7 5 6
34 35 40 52 44 42 37 45 35 34 36 35 35 32 26 28 27 25 22 20 22 26 21 19 19 20 23 26 26 25 25 26 25 24 23 22 22 20 16 16 14 14 13 11 9 8 7 8 9
37 45 48 54 48 40 39 45 40 30 32 34 33 34 35 34 30 26 31 30 27 25 23 21 22 22 21 25 29 27 26 27 26 24 24 24 23 23 18 16 16 14 14 13 12 11 10 10 10
48 52 51 52 50 45 41 40 36 39 35 32 31 31 36 34 39 35 31 35 36 29 29 27 25 24 24 23 25 26 26 27 27 26 26 26 24 24 20 18 18 17 17 15 14 13 13 12 13
53 51 45 55 47 32 51 44 40 36 39 39 40 37 34 39 33 38 33 33 38 34 35 32 30 30 28 27 28 30 28 27 28 26 27 27 26 25 22 20 20 19 18 17 17 16 15 15 15
53 50 50 45 46 43 37 46 44 40 49 41 35 44 40 36 30 33 37 38 40 39 37 38 32 32 32 29 28 29 29 28 27 29 30 28 28 26 23 20 20 20 17 18 17 17 16 15 15
53 54 62 52 37 39 44 46 42 47 47 45 41 36 41 41 41 35 38 41 45 46 45 44 39 33 32 32 33 33 32 31 32 31 30 31 31 27 25 22 21 20 18 16 16 16 13 14 16
50 58 57 48 37 32 47 30 42 47 48 46 51 45 42 43 38 44 39 39 46 49 47 47 45 39 34 34 36 37 36 34 32 30 29 31 32 30 25 25 24 22 20 19 18 19 16 16 16
52 42 51 44 39 43 39 25 38 48 48 58 49 53 51 47 40 39 40 40 43 49 51 49 49 46 41 39 34 38 39 35 36 35 33 33 33 31 27 28 28 27 22 21 21 20 20 19 17
43 30 38 41 52 29 43 40 46 49 54 54 54 43 49 53 51 41 48 42 45 48 54 53 51 51 48 43 42 39 40 38 40 38 39 36 34 33 30 28 28 28 24 24 21 22 22 20 20
47 24 10 17 13 16 57 44 51 60 59 42 46 52 52 52 54 46 49 50 46 49 49 48 49 50 46 47 46 44 42 43 44 43 41 40 37 36 33 32 27 24 24 24 26 24 21 19 21
54 43 13 13 15 16 40 19 65 78 45 39 54 45 37 41 38 56 46 50 50 51 54 55 57 59 57 53 46 44 40 43 44 42 43 42 39 35 34 33 30 25 23 25 27 27 25 21 22
23 26 49 29 28 10 24 31 59 55 58 57 37 43 51 48 48 45 56 57 58 60 62 62 60 59 61 55 47 48 44 42 44 41 40 41 39 38 37 37 33 30 28 28 30 30 27 24 27
27 28 28 21 7 14 14 41 47 58 71 66 57 45 47 34 29 50 50 44 58 58 59 60 62 59 58 59 50 48 49 45 43 44 38 35 40 39 38 39 35 35 33 31 30 29 29 28 26
20 30 16 18 21 7 11 29 71 49 53 49 58 65 61 46 36 32 38 46 42 46 52 54 57 58 59 64 54 44 45 45 45 45 43 36 36 38 39 40 38 39 36 33 28 30 31 30 31
26 23 30 15 6 28 11 35 29 35 20 37 35 37 49 57 59 58 41 45 44 41 42 48 46 48 53 55 55 49 44 47 48 47 46 43 38 35 38 40 40 39 36 31 32 32 31 31 32
Wind_Direction
214 211 209 204 215 236 244 245 244 286 188 176 196 200 226 237 186 188 152 136 152 158 178 181 178 175 165 157 144 139 136 129 123 119 115 109 106 103 100 99 97 95 93 88 87 84 80 78 78
210 206 204 193 240 239 251 240 273 274 222 221 213 212 219 248 259 29 146 152 158 167 182 190 185 183 177 170 159 152 146 143 133 122 116 111 107 105 103 98 96 91 87 87 86 84 82 81 79
206 212 202 212 237 234 240 234 318 167 175 202 221 216 213 211 230 181 147 154 163 172 188 198 195 188 187 183 173 162 159 153 147 132 120 114 109 106 102 99 92 90 90 87 85 82 80 79 79
206 210 215 223 227 232 248 277 307 187 231 275 179 169 207 193 221 203 170 161 159 178 185 199 203 196 192 191 184 173 168 165 158 148 137 123 117 110 107 103 101 96 92 88 84 83 83 83 81
207 207 223 238 241 248 254 275 215 222 262 268 179 181 217 208 236 220 199 181 177 178 195 204 206 200 196 194 191 183 177 175 169 160 153 141 133 122 112 110 112 106 99 94 90 88 90 90 88
208 205 215 240 239 242 261 270 252 213 223 215 188 200 211 229 237 233 207 187 190 201 205 210 210 203 197 196 197 190 185 183 179 176 173 169 159 147 135 124 115 113 113 107 103 101 99 100 97
216 206 230 236 237 260 258 298 219 221 199 221 198 209 206 214 212 224 210 195 198 223 224 221 214 202 197 196 199 195 191 191 188 189 187 190 186 174 164 147 134 134 126 126 127 123 114 105 107
224 222 233 231 243 256 245 266 234 242 211 212 218 213 219 202 216 227 217 215 219 228 231 218 212 205 201 199 200 200 198 197 196 200 198 202 201 193 190 186 169 154 147 159 151 143 133 123 118
217 231 240 225 232 232 264 313 243 237 187 215 217 217 221 219 212 219 225 225 229 228 228 213 205 205 205 205 207 203 205 205 203 205 212 210 212 208 207 206 200 188 179 202 198 183 169 179 197
204 226 229 222 219 242 258 322 223 217 197 202 208 220 225 210 216 224 235 233 226 216 202 196 199 205 208 210 215 215 217 217 211 209 217 215 220 222 217 219 220 221 210 213 228 230 226 236 261
215 229 228 228 227 245 272 284 229 223 211 218 227 244 233 245 230 225 224 227 213 206 201 195 195 207 214 218 221 221 224 222 217 213 222 224 225 229 225 224 228 228 231 239 250 263 270 259 257
231 228 231 234 232 241 249 267 241 217 216 230 212 255 245 245 248 238 221 221 214 212 215 216 209 210 216 221 225 224 227 226 220 218 228 233 231 231 229 235 236 238 240 251 262 273 275 262 268
228 233 235 241 245 234 234 260 237 216 224 223 224 257 239 242 240 236 223 221 221 216 220 231 231 227 224 221 227 224 225 226 222 221 231 237 232 231 229 234 236 238 242 249 256 258 268 249 249
219 235 239 239 240 237 244 260 247 211 220 227 235 239 229 239 239 241 230 225 226 220 221 233 235 230 231 218 224 224 225 225 224 226 231 237 240 232 232 232 235 239 243 242 246 241 243 241 248
229 240 237 239 233 241 247 249 247 222 211 217 224 220 237 241 238 239 236 243 235 225 225 228 232 226 228 218 214 220 222 225 226 228 230 237 244 245 239 244 233 237 231 239 237 240 261 276 286
231 236 248 228 226 233 237 246 239 237 223 221 221 218 226 241 251 249 245 247 253 238 230 224 229 223 219 218 215 218 222 224 226 230 232 234 242 246 244 248 253 248 249 243 250 267 278 281 276
226 236 230 237 224 229 234 239 235 236 237 235 229 219 221 230 235 238 241 239 243 258 253 234 224 228 217 222 227 226 221 225 228 231 234 230 234 244 246 247 251 252 255 259 263 263 268 271 270
216 220 232 234 231 228 235 236 236 231 232 234 236 233 226 230 228 237 230 235 235 245 257 246 231 225 224 217 225 226 222 224 230 232 232 232 233 242 246 248 250 251 255 253 256 263 263 265 261
218 221 229 234 227 239 231 234 236 231 230 228 233 238 239 234 233 231 230 228 239 239 248 251 237 226 228 229 230 233 234 234 235 236 235 235 235 241 246 247 252 252 256 258 256 257 262 263 262
223 224 233 237 235 225 234 239 234 233 236 240 241 232 234 235 232 239 227 225 234 239 240 250 249 234 228 232 235 237 239 239 238 238 238 234 237 242 249 248 248 253 253 255 255 254 260 260 262
222 220 227 229 230 236 237 245 240 238 238 239 243 239 232 236 232 230 229 226 229 236 239 243 248 247 234 231 235 234 234 235 234 235 236 237 236 241 246 243 241 246 248 249 245 249 256 260 261
227 222 227 232 229 225 228 239 240 239 235 236 237 235 227 230 235 233 225 227 226 234 239 240 242 251 251 235 234 237 240 243 247 247 242 239 238 239 241 238 240 244 243 243 248 253 257 264 270
233 231 231 232 231 239 238 236 239 239 238 233 230 234 230 227 234 232 224 230 230 233 237 242 243 245 254 256 246 240 241 246 247 245 245 242 237 237 237 235 238 243 243 245 253 259 258 266 272
229 243 236 239 233 243 236 235 244 235 234 236 234 234 233 237 229 237 236 232 228 230 236 239 244 245 247 252 258 247 242 243 246 247 245 244 241 235 235 234 238 238 242 247 254 258 260 269 267
231 236 233 241 221 219 227 227 234 233 235 237 230 236 241 238 235 233 234 228 225 228 233 235 242 243 245 249 256 257 244 243 247 249 249 246 244 237 232 236 240 243 249 249 251 259 265 274 279
217 230 225 215 208 214 225 228 231 231 232 243 239 227 226 239 238 231 231 225 224 230 231 237 243 248 249 251 250 253 254 248 245 245 247 246 244 244 236 236 240 241 246 248 254 252 253 258 275
235 220 231 251 262 249 219 228 239 232 230 230 229 231 232 233 240 234 233 235 240 241 240 237 241 248 253 250 251 252 255 255 248 245 246 245 242 240 236 237 239 239 247 251 255 257 258 262 275
242 239 229 210 206 220 216 219 236 233 230 227 226 225 219 223 225 228 233 238 239 240 240 239 239 242 251 255 252 253 255 256 254 247 245 247 242 238 238 235 236 238 247 254 261 256 256 262 272
220 227 214 220 224 208 219 234 233 244 241 245 238 235 228 232 219 228 230 235 242 232 232 235 237 239 241 250 253 249 249 249 250 248 248 246 249 243 239 235 233 237 245 254 258 254 252 262 269
222 229 235 225 172 215 222 249 244 239 247 240 242 238 240 241 234 241 230 229 230 223 225 224 229 234 234 239 249 247 245 245 246 245 248 245 246 247 241 240 236 236 244 255 249 250 253 259 267